Weather reports worldwide

Advertisment
Gotska sandoen, Sweden (2589): temperature & dewpoint: 04.07.2020 11:00:00 - 10.07.2020 11:00:00 (CEST)Gotska sandoen, Sweden (2589): wind speed & gusts: 04.07.2020 11:00:00 - 10.07.2020 11:00:00 (CEST)Gotska sandoen, Sweden (2589): wind direction: 04.07.2020 11:00:00 - 10.07.2020 11:00:00 (CEST)Gotska sandoen, Sweden (2589): reduced air pressure: 04.07.2020 11:00:00 - 10.07.2020 11:00:00 (CEST)Gotska sandoen, Sweden (2589): visibility: 04.07.2020 11:00:00 - 10.07.2020 11:00:00 (CEST)Gotska sandoen, Sweden (2589): precipitation: 04.07.2020 11:00:00 - 10.07.2020 11:00:00 (CEST)
Date & Time tt [°C] td [°C] ff [km/h] ff [kn] fx [km/h] fx [kn] dd ppp [hPa] vv [km] rr [mm]
10.07.2020 11:00:00 17,8 10,2 13 7 28 15 SSW 1009,3 37 0,0
10.07.2020 10:00:00 16,9 10,3 10 5 26 14 SSW 1009,3 36 0,0
10.07.2020 09:00:00 15,9 10,9 12 7 26 14 SW 1009,4 46 0,0
10.07.2020 08:00:00 15,1 10,3 10 6 22 12 SSW 1009,5 50 0,0
10.07.2020 07:00:00 13,8 10,8 9 5 23 12 SSW 1009,6 50 0,0
10.07.2020 06:00:00 13,1 11,0 10 6 20 11 S 1009,5 48 0,0
10.07.2020 05:00:00 12,1 10,5 10 5 23 12 S 1009,6 46 0,0
10.07.2020 04:00:00 12,2 10,6 14 8 25 14 SSW 1009,8 44 0,0
10.07.2020 03:00:00 12,3 10,5 14 7 25 13 SSW 1010,3 49 0,0
10.07.2020 02:00:00 12,3 10,2 16 9 24 13 SSW 1010,5 50 0,0
10.07.2020 01:00:00 12,2 10,8 11 6 19 10 S 1010,6 39 0,0
10.07.2020 00:00:00 11,4 10,0 10 5 16 8 SW 1010,6 48 0,0
09.07.2020 23:00:00 12,2 10,8 9 5 15 8 SSW 1010,8 34 0,0
09.07.2020 22:00:00 12,9 11,1 8 4 12 6 SW 1010,8 38 0,0
09.07.2020 21:00:00 14,1 11,6 7 4 14 7 SSW 1010,7 40 0,0
09.07.2020 20:00:00 14,7 11,7 8 4 19 10 SW 1010,7 45 0,0
09.07.2020 19:00:00 15,3 11,5 9 5 24 13 WSW 1010,8 48 0,0
09.07.2020 18:00:00 16,4 11,5 13 7 32 18 WSW 1011,1 50 0,0
09.07.2020 17:00:00 17,3 11,3 16 9 31 17 WSW 1011,1 45 0,0
09.07.2020 16:00:00 17,8 11,1 18 10 34 18 WSW 1011,2 35 0,0
09.07.2020 15:00:00 17,9 10,5 21 12 33 18 WSW 1011,2 43 0,0
09.07.2020 14:00:00 17,9 11,2 17 9 31 17 WSW 1011,3 36 0,0
09.07.2020 13:00:00 17,7 11,0 18 10 35 19 W 1011,1 42 0,0
09.07.2020 12:00:00 17,9 11,9 21 11 34 18 W 1010,9 44 0,0
09.07.2020 11:00:00 17,3 11,3 17 9 29 16 W 1010,6 45 0,0
09.07.2020 10:00:00 16,1 11,1 18 10 29 16 W 1010,3 37 0,0
09.07.2020 09:00:00 15,9 10,9 16 9 29 15 WNW 1009,9 43 0,0
09.07.2020 08:00:00 14,7 10,7 16 9 28 15 W 1009,5 48 0,0
09.07.2020 07:00:00 13,5 10,5 15 8 28 15 W 1009,3 50 0,0
09.07.2020 06:00:00 12,4 9,8 12 7 24 13 W 1009,0 50 0,0
09.07.2020 05:00:00 12,0 9,6 13 7 27 15 WNW 1008,6 50 0,0
09.07.2020 04:00:00 11,9 9,1 17 9 31 17 WNW 1008,1 50 0,0
09.07.2020 03:00:00 12,0 9,0 17 9 32 17 WNW 1007,9 50 0,0
09.07.2020 02:00:00 12,1 9,7 16 9 31 17 W 1007,8 50 0,0
09.07.2020 01:00:00 12,1 9,5 16 8 34 18 W 1007,7 50 0,0
09.07.2020 00:00:00 12,5 9,9 20 11 34 18 W 1007,4 50 0,0
08.07.2020 23:00:00 12,4 9,2 17 9 29 16 W 1007,2 50 0,0
08.07.2020 22:00:00 12,5 9,0 19 10 33 18 W 1006,9 50 0,0
08.07.2020 21:00:00 13,0 9,1 18 10 32 17 W 1006,5 50 0,0
08.07.2020 20:00:00 13,7 8,7 20 11 34 18 W 1006,0 50 0,0
08.07.2020 19:00:00 14,3 8,9 15 8 32 18 W 1005,7 50 0,0
08.07.2020 18:00:00 14,9 8,1 19 10 35 19 W 1006,0 50 0,0
08.07.2020 17:00:00 15,1 8,6 22 12 39 21 W 1005,5 50 0,0
08.07.2020 16:00:00 15,5 8,5 21 11 40 22 W 1005,1 50 0,0
08.07.2020 15:00:00 15,6 8,1 23 12 42 23 W 1004,8 47 0,0
08.07.2020 14:00:00 15,5 9,2 26 14 39 21 W 1004,4 50 0,0
08.07.2020 13:00:00 14,5 10,5 23 13 36 19 W 1004,0 44 0,0
08.07.2020 12:00:00 11,6 11,0 13 7 27 15 WSW 1003,8 17 0,5
08.07.2020 11:00:00 9,9 8,8 16 9 47 26 SW 1004,0 7 2,3
08.07.2020 10:00:00 12,9 8,0 21 11 45 24 SW 1003,7 46 0,1
08.07.2020 09:00:00 13,3 7,1 18 10 35 19 SW 1004,0 47 0,0
08.07.2020 08:00:00 14,1 6,7 16 9 34 19 WSW 1004,1 46 0,0
08.07.2020 07:00:00 12,6 6,4 18 10 31 17 WSW 1004,4 50 0,0
08.07.2020 06:00:00 12,6 7,7 14 8 29 16 WSW 1004,7 50 0,0
08.07.2020 05:00:00 11,6 7,1 16 9 31 17 W 1005,0 50 0,0
08.07.2020 04:00:00 11,9 7,4 21 11 34 18 W 1005,2 50 0,0
08.07.2020 03:00:00 12,3 8,0 21 11 35 19 W 1005,4 50 0,0
08.07.2020 02:00:00 12,9 8,6 17 9 27 15 W 1005,5 50 0,0
08.07.2020 01:00:00 12,8 8,3 16 9 32 18 W 1005,5 50 0,0
08.07.2020 00:00:00 13,9 9,3 26 14 40 22 W 1005,5 50 0,0
07.07.2020 23:00:00 14,3 11,1 23 13 38 20 WSW 1005,6 50 0,0
07.07.2020 22:00:00 14,0 11,0 14 8 29 16 SW 1005,9 50 0,0
07.07.2020 21:00:00 14,3 10,5 16 8 31 17 SW 1006,0 50 0,0
07.07.2020 20:00:00 15,2 10,8 19 11 29 16 WSW 1006,0 50 0,0
07.07.2020 19:00:00 15,8 11,2 16 8 33 18 SW 1006,3 45 0,0
07.07.2020 18:00:00 16,8 11,1 18 10 34 18 WSW 1006,6 43 0,0
07.07.2020 17:00:00 17,5 11,1 23 13 36 19 WSW 1006,5 50 0,0
07.07.2020 16:00:00 18,5 11,1 18 10 37 20 WSW 1006,5 45 0,0
07.07.2020 15:00:00 18,4 10,7 21 11 40 21 WSW 1006,4 42 0,0
07.07.2020 14:00:00 19,0 11,3 23 12 37 20 W 1005,9 44 0,0
07.07.2020 13:00:00 18,1 11,6 19 10 37 20 W 1005,7 43 0,0
07.07.2020 12:00:00 18,7 11,3 23 13 42 23 W 1005,3 45 0,0
07.07.2020 11:00:00 17,1 10,0 24 13 42 23 W 1004,7 43 0,0
07.07.2020 10:00:00 16,2 9,8 23 12 42 23 W 1003,7 36 0,0
07.07.2020 09:00:00 15,4 10,0 23 12 45 25 W 1002,7 43 0,0
07.07.2020 08:00:00 14,8 10,6 26 14 44 24 W 1001,9 50 0,0
07.07.2020 07:00:00 13,8 10,0 26 14 43 23 W 1001,3 50 0,0
07.07.2020 06:00:00 13,3 10,5 24 13 46 25 W 1000,9 50 0,0
07.07.2020 05:00:00 13,2 10,7 26 14 48 26 W 1000,1 50 0,0
07.07.2020 04:00:00 13,3 10,8 27 15 51 28 W 999,1 50 0,0
07.07.2020 03:00:00 13,5 11,0 23 13 52 28 W 998,3 42 0,0
07.07.2020 02:00:00 14,1 12,0 30 16 56 30 WSW 997,4 19 0,1
07.07.2020 01:00:00 14,3 11,6 30 16 55 30 WSW 996,9 21 0,0
07.07.2020 00:00:00 14,5 11,3 38 21 62 34 WSW 996,4 29 0,0
06.07.2020 23:00:00 14,7 11,1 35 19 57 31 WSW 996,1 42 0,0
06.07.2020 22:00:00 14,9 10,5 32 17 61 33 WSW 996,3 40 0,0
06.07.2020 21:00:00 15,2 9,5 36 20 62 33 WSW 996,1 49 0,0
06.07.2020 20:00:00 15,7 10,9 32 18 59 32 SW 996,2 44 0,0
06.07.2020 19:00:00 16,0 10,1 34 18 66 35 SW 996,3 45 0,0
06.07.2020 18:00:00 16,8 10,9 30 16 54 29 SW 996,4 41 0,0
06.07.2020 17:00:00 17,1 10,2 33 18 61 33 SW 996,3 47 0,0
06.07.2020 16:00:00 17,9 11,2 32 17 56 31 SW 996,5 32 0,0
06.07.2020 15:00:00 18,1 10,7 31 17 55 30 SW 996,6 26 0,0
06.07.2020 14:00:00 17,6 10,9 30 16 60 32 SW 996,4 28 0,0
06.07.2020 13:00:00 17,9 10,0 34 18 67 36 SW 996,1 33 0,0
06.07.2020 12:00:00 18,0 11,1 35 19 64 34 SW 995,8 32 0,0
06.07.2020 11:00:00 16,9 11,0 39 21 67 36 WSW 995,7 26 0,0
06.07.2020 10:00:00 16,1 10,2 38 21 67 36 SW 995,6 26 0,0
06.07.2020 09:00:00 16,0 9,9 34 19 65 35 WSW 995,5 24 0,0
06.07.2020 08:00:00 15,4 9,7 37 20 63 34 WSW 995,4 38 0,0
06.07.2020 07:00:00 14,8 9,8 36 20 64 35 WSW 995,4 31 0,0
06.07.2020 06:00:00 14,7 10,1 34 19 65 35 WSW 995,2 33 0,0
06.07.2020 05:00:00 14,6 9,6 34 18 62 34 WSW 995,3 38 0,0
06.07.2020 04:00:00 14,7 9,3 38 21 63 34 WSW 995,3 36 0,0
06.07.2020 03:00:00 15,0 11,4 34 18 58 31 WSW 995,3 28 0,0
06.07.2020 02:00:00 15,3 10,9 36 20 61 33 W 995,0 27 0,0
06.07.2020 01:00:00 15,7 12,1 35 19 56 30 WSW 994,7 24 0,0
06.07.2020 00:00:00 16,0 12,4 34 19 59 32 WSW 994,4 24 0,0
05.07.2020 23:00:00 16,2 13,1 29 16 64 35 WSW 994,2 24 0,0
05.07.2020 22:00:00 16,3 14,1 34 19 68 37 SW 993,9 23 0,0
05.07.2020 21:00:00 17,1 14,6 37 20 62 33 SW 993,5 33 0,0
05.07.2020 20:00:00 17,3 14,6 34 18 68 37 SW 993,5 29 0,0
05.07.2020 19:00:00 17,9 15,3 39 21 71 38 SW 993,6 35 0,0
05.07.2020 18:00:00 18,8 15,5 37 20 61 33 SW 994,1 37 0,0
05.07.2020 17:00:00 17,6 16,1 29 16 55 30 SSW 994,7 26 0,0
05.07.2020 16:00:00 16,7 15,9 26 14 46 25 SSW 995,8 12 0,4
05.07.2020 15:00:00 17,5 15,3 24 13 42 23 SSW 996,9 32 0,0
05.07.2020 14:00:00 17,5 15,3 23 12 46 25 S 998,1 43 0,0
05.07.2020 13:00:00 16,6 15,5 7 4 19 10 SSW 999,4 11 0,0
05.07.2020 12:00:00 17,3 14,6 11 6 26 14 SW 1000,4 50 0,0
05.07.2020 11:00:00 17,3 14,8 15 8 30 16 SSW 1001,3 50 0,0
05.07.2020 10:00:00 17,3 15,5 12 7 22 12 SW 1001,7 40 0,0
05.07.2020 09:00:00 16,5 15,0 10 5 21 11 SW 1002,1 46 0,0
05.07.2020 08:00:00 16,3 14,8 11 6 21 12 WSW 1002,3 50 0,0
05.07.2020 07:00:00 15,1 14,6 12 6 21 11 W 1002,3 50 0,0
05.07.2020 06:00:00 14,3 13,9 12 7 19 11 W 1002,2 36 0,0
05.07.2020 05:00:00 14,7 14,4 13 7 22 12 W 1002,4 10 0,0
05.07.2020 04:00:00 14,3 14,0 11 6 19 10 SW 1002,4 16 0,0
05.07.2020 03:00:00 14,5 14,2 11 6 26 14 WSW 1002,5 15 0,0
05.07.2020 02:00:00 15,0 14,5 21 11 36 19 W 1002,6 9 0,6
05.07.2020 01:00:00 15,3 15,0 19 11 32 18 WSW 1002,8 9 0,2
05.07.2020 00:00:00 15,2 14,9 20 11 38 20 WSW 1003,0 9 0,4
04.07.2020 23:00:00 15,2 14,7 23 12 44 24 WSW 1003,3 8 0,5
04.07.2020 22:00:00 15,3 14,8 25 14 46 25 WSW 1003,5 8 0,5
04.07.2020 21:00:00 15,4 14,9 27 15 50 27 WSW 1003,6 7 1,1
04.07.2020 20:00:00 15,5 14,7 29 16 54 29 WSW 1003,7 8 0,1
04.07.2020 19:00:00 16,4 14,2 31 17 56 30 WSW 1003,8 32 0,0
04.07.2020 18:00:00 16,9 14,2 31 17 55 30 SW 1003,8 39 0,0
04.07.2020 17:00:00 17,6 14,1 33 18 56 30 SW 1003,8 36 0,0
04.07.2020 16:00:00 17,8 14,1 31 17 61 33 SW 1003,9 33 0,0
04.07.2020 15:00:00 18,4 14,5 32 17 58 31 SW 1003,8 33 0,0
04.07.2020 14:00:00 17,9 14,6 34 18 59 32 SW 1003,9 35 0,0
04.07.2020 13:00:00 16,2 14,4 30 16 56 30 SW 1004,2 24 0,0
04.07.2020 12:00:00 15,8 14,0 31 17 56 30 SW 1004,4 25 0,0
04.07.2020 11:00:00 14,9 13,8 30 16 56 30 SW 1004,7 32 0,0

tt = temperature
td = dewpoint
ff = wind speed
fx = gusts
dd = wind direction
ppp = reduced air pressure
vv = visibility
rr = precipitation

Next stations